Muscatine, IA

11:42 PM CST on December 10, 2019 (GMT -0600)
Muscatine Municipal

Weather History for KMUT - October, 2019

Change the Weather History Date:

Saturday, October 12, 2019

  Actual Average Record
Temperature  
Mean Temperature 47 °F -  
Max Temperature 62 °F 66 °F 86 °F (2008)
Min Temperature 32 °F 44 °F 21 °F (1988)
Degree Days  
Heating Degree Days 18    
Moisture  
Dew Point 27 °F    
Average Humidity 54    
Maximum Humidity 87    
Minimum Humidity 23    
Precipitation  
Precipitation 0.00 in - - ()
Sea Level Pressure  
Sea Level Pressure 29.93 in    
Wind  
Wind Speed 13 mph (SW)    
Max Wind Speed 26 mph    
Max Gust Speed 39 mph    
Visibility 10 miles    
Events      
Averages and records for this station are not official NWS values.
T = Trace of Precipitation, MM = Missing Value Source: NWS Daily Summary

Daily Weather History Graph

Daily Weather History Graph

Search for Another Location

Airport or City:

Astronomy

Oct. 12, 2019 Rise Set
Actual Time 7:12 AM CDT 6:28 PM CDT
Civil Twilight 6:45 AM CDT 6:56 PM CDT
Nautical Twilight 6:13 AM CDT 7:28 PM CDT
Astronomical Twilight 5:41 AM CDT 8:00 PM CDT
Moon 6:25 PM CDT (10/12) 5:48 AM CDT (10/12)
Length of Visible Light 12h 11m
Length of Day
11h 15m
Waxing Gibbous, 99% of the Moon is Illuminated
Oct 12
Waxing Gibbous
Oct 13
Full
Oct 21
Last Quarter
Oct 27
New
Nov 4
First Quarter

Hourly Weather History & Observations

Time (CDT) Temp. Windchill Dew Point Humidity Pressure Visibility Wind Dir Wind Speed Gust Speed Precip Events Conditions
12:15 AM 41.0 °F 34.7 °F 24.8 °F 53% 30.09 in 10.0 mi WSW 10.4 mph 19.6 mph N/A   Overcast
12:35 AM 39.2 °F 32.0 °F 24.8 °F 56% 30.08 in 10.0 mi WSW 11.5 mph - N/A   Scattered Clouds
12:55 AM 37.4 °F 30.3 °F 26.6 °F 65% 30.08 in 10.0 mi WSW 10.4 mph - N/A   Clear
1:15 AM 37.4 °F 30.8 °F 26.6 °F 65% 30.08 in 10.0 mi SW 9.2 mph - N/A   Clear
1:35 AM 37.4 °F 30.8 °F 26.6 °F 65% 30.08 in 10.0 mi SSW 9.2 mph - N/A   Clear
1:55 AM 37.4 °F 29.8 °F 26.6 °F 65% 30.07 in 10.0 mi SW 11.5 mph - N/A   Clear
2:15 AM 35.6 °F 29.2 °F 28.4 °F 75% 30.07 in 10.0 mi SSW 8.1 mph - N/A   Clear
2:35 AM 35.6 °F 29.2 °F 28.4 °F 75% 30.06 in 10.0 mi SSW 8.1 mph - N/A   Clear
2:55 AM 35.6 °F 28.0 °F 28.4 °F 75% 30.06 in 10.0 mi SW 10.4 mph - N/A   Clear
3:15 AM 35.6 °F 28.0 °F 28.4 °F 75% 30.06 in 10.0 mi SW 10.4 mph - N/A   Clear
3:35 AM 35.6 °F 27.5 °F 28.4 °F 75% 30.06 in 10.0 mi SW 11.5 mph - N/A   Clear
3:55 AM 33.8 °F 26.4 °F 28.4 °F 81% 30.06 in 10.0 mi SSW 9.2 mph - N/A   Clear
4:15 AM 33.8 °F 26.4 °F 28.4 °F 81% 30.05 in 10.0 mi SW 9.2 mph - N/A   Clear
4:35 AM 33.8 °F 26.4 °F 28.4 °F 81% 30.05 in 10.0 mi SSW 9.2 mph - N/A   Clear
4:55 AM 33.8 °F 25.3 °F 28.4 °F 81% 30.05 in 10.0 mi SSW 11.5 mph - N/A   Clear
5:15 AM 33.8 °F 25.3 °F 26.6 °F 75% 30.04 in 10.0 mi SW 11.5 mph 17.3 mph N/A   Clear
5:35 AM 33.8 °F 25.8 °F 26.6 °F 75% 30.05 in 10.0 mi SW 10.4 mph - N/A   Clear
5:55 AM 33.8 °F 25.8 °F 26.6 °F 75% 30.04 in 10.0 mi SSW 10.4 mph 18.4 mph N/A   Clear
6:15 AM 33.8 °F 25.3 °F 26.6 °F 75% 30.04 in 10.0 mi SSW 11.5 mph - N/A   Clear
6:35 AM 32.0 °F 23.0 °F 26.6 °F 80% 30.04 in 10.0 mi SW 11.5 mph - N/A   Clear
6:55 AM 32.0 °F 23.6 °F 26.6 °F 80% 30.04 in 10.0 mi SW 10.4 mph - N/A   Clear
7:15 AM 32.0 °F 24.2 °F 26.6 °F 80% 30.03 in 10.0 mi SW 9.2 mph 16.1 mph N/A   Clear
7:55 AM 35.6 °F 26.6 °F 24.8 °F 65% 30.03 in 10.0 mi SW 13.8 mph - N/A   Clear
8:15 AM 35.6 °F 26.2 °F 24.8 °F 65% 30.03 in 10.0 mi SW 15.0 mph - N/A   Clear
8:35 AM 37.4 °F 28.9 °F 24.8 °F 60% 30.02 in 10.0 mi SW 13.8 mph 19.6 mph N/A   Clear
8:55 AM 37.4 °F 28.5 °F 24.8 °F 60% 30.01 in 10.0 mi SW 15.0 mph 24.2 mph N/A   Clear
9:15 AM 39.2 °F 29.3 °F 24.8 °F 56% 30.01 in 10.0 mi SW 20.7 mph 27.6 mph N/A   Clear
9:35 AM 41.0 °F 33.1 °F 26.6 °F 57% 30.00 in 10.0 mi SW 15.0 mph 24.2 mph N/A   Clear
9:55 AM 44.6 °F 37.4 °F 24.8 °F 46% 29.99 in 10.0 mi SW 16.1 mph 25.3 mph N/A   Clear
10:15 AM 44.6 °F 36.6 °F 24.8 °F 46% 29.99 in 10.0 mi SW 19.6 mph 28.8 mph N/A   Clear
10:35 AM 46.4 °F 38.1 °F 24.8 °F 43% 29.98 in 10.0 mi SW 24.2 mph - N/A   Clear
10:55 AM 48.2 °F - 23.0 °F 37% 29.97 in 10.0 mi SW 24.2 mph 32.2 mph N/A   Clear
11:15 AM 50.0 °F - 23.0 °F 35% 29.96 in 10.0 mi WSW 25.3 mph 32.2 mph N/A   Clear
11:35 AM 51.8 °F - 23.0 °F 33% 29.95 in 10.0 mi WSW 23.0 mph 34.5 mph N/A   Clear
11:55 AM 51.8 °F - 23.0 °F 33% 29.93 in 10.0 mi SW 25.3 mph 35.7 mph N/A   Clear
12:15 PM 53.6 °F - 23.0 °F 30% 29.93 in 10.0 mi WSW 24.2 mph 35.7 mph N/A   Clear
12:35 PM 55.4 °F - 23.0 °F 29% 29.92 in 10.0 mi SW 25.3 mph 33.4 mph N/A   Clear
12:55 PM 55.4 °F - 23.0 °F 29% 29.91 in 10.0 mi SW 24.2 mph 34.5 mph N/A   Clear
1:15 PM 55.4 °F - 23.0 °F 29% 29.88 in 10.0 mi SW 26.5 mph 34.5 mph N/A   Clear
1:35 PM 57.2 °F - 24.8 °F 29% 29.87 in 10.0 mi SW 26.5 mph 32.2 mph N/A   Clear
1:55 PM 57.2 °F - 23.0 °F 27% 29.86 in 10.0 mi SW 25.3 mph 39.1 mph N/A   Clear
2:15 PM 57.2 °F - 23.0 °F 27% 29.84 in 10.0 mi SW 24.2 mph 35.7 mph N/A   Clear
2:35 PM 59.0 °F - 24.8 °F 27% 29.84 in 10.0 mi SW 20.7 mph 32.2 mph N/A   Clear
2:55 PM 60.8 °F - 24.8 °F 25% 29.83 in 10.0 mi SW 23.0 mph - N/A   Clear
3:15 PM 60.8 °F - 23.0 °F 23% 29.83 in 10.0 mi SW 24.2 mph 33.4 mph N/A   Clear
3:35 PM 60.8 °F - 24.8 °F 25% 29.81 in 10.0 mi WSW 25.3 mph 38.0 mph N/A   Clear
3:55 PM 60.8 °F - 24.8 °F 25% 29.81 in 10.0 mi WSW 23.0 mph 36.8 mph N/A   Clear
4:15 PM 60.8 °F - 24.8 °F 25% 29.80 in 10.0 mi WSW 25.3 mph 34.5 mph N/A   Clear
4:35 PM 62.6 °F - 24.8 °F 24% 29.78 in 10.0 mi SW 25.3 mph 32.2 mph N/A   Clear
4:55 PM 60.8 °F - 26.6 °F 27% 29.78 in 10.0 mi WSW 21.9 mph - N/A   Clear
5:15 PM 60.8 °F - 28.4 °F 29% 29.79 in 10.0 mi WSW 17.3 mph 27.6 mph N/A   Clear
5:35 PM 60.8 °F - 26.6 °F 27% 29.79 in 10.0 mi West 17.3 mph - N/A   Clear
5:55 PM 59.0 °F - 28.4 °F 31% 29.79 in 10.0 mi West 13.8 mph - N/A   Clear
6:15 PM 57.2 °F - 28.4 °F 33% 29.79 in 10.0 mi West 13.8 mph - N/A   Clear
6:35 PM 55.4 °F - 28.4 °F 36% 29.80 in 10.0 mi West 10.4 mph - N/A   Clear
6:55 PM 53.6 °F - 28.4 °F 38% 29.81 in 10.0 mi West 9.2 mph - N/A   Clear
7:15 PM 51.8 °F - 30.2 °F 44% 29.81 in 10.0 mi West 6.9 mph - N/A   Clear
7:35 PM 50.0 °F - 30.2 °F 47% 29.81 in 10.0 mi WSW 9.2 mph - N/A   Clear
7:55 PM 50.0 °F - 30.2 °F 47% 29.82 in 10.0 mi SW 9.2 mph - N/A   Clear
8:15 PM 51.8 °F - 28.4 °F 41% 29.82 in 10.0 mi SW 8.1 mph - N/A   Clear
8:35 PM 51.8 °F - 26.6 °F 38% 29.81 in 10.0 mi SW 9.2 mph - N/A   Clear
8:55 PM 50.0 °F - 28.4 °F 43% 29.82 in 10.0 mi WSW 8.1 mph - N/A   Clear
9:15 PM 46.4 °F 40.1 °F 30.2 °F 53% 29.82 in 10.0 mi North 15.0 mph - N/A   Clear
9:35 PM 42.8 °F 37.0 °F 33.8 °F 70% 29.85 in 10.0 mi North 10.4 mph 18.4 mph N/A   Clear
9:55 PM 39.2 °F 35.0 °F 33.8 °F 81% 29.87 in 10.0 mi NNE 5.8 mph - N/A   Clear
10:15 PM 39.2 °F 35.0 °F 33.8 °F 81% 29.87 in 10.0 mi North 5.8 mph - N/A   Clear
10:35 PM 39.2 °F - 33.8 °F 81% 29.88 in 10.0 mi Calm Calm - N/A   Clear
10:55 PM 37.4 °F 33.8 °F 33.8 °F 87% 29.88 in 10.0 mi NE 4.6 mph - N/A   Clear
11:15 PM 37.4 °F - 33.8 °F 87% 29.88 in 10.0 mi Calm Calm - N/A   Clear
11:35 PM 37.4 °F - 33.8 °F 87% 29.88 in 10.0 mi Calm Calm - N/A   Clear
11:55 PM 35.6 °F 31.7 °F 32.0 °F 87% 29.88 in 10.0 mi West 4.6 mph - N/A   Clear